EW2082 Weather Reports


Display with metric or nautical units.
time (UTC)temp
F
wind
direction
speed
MPH
gust
MPH
rain 1hr
in
rain 24hr
in
rain mn
in
humidity
%
barometer
mb
20260906070006 71 283 0.0 0.0 0.00 0.00 0.00 80 1011.9
20260906065004 71 283 0.0 0.0 0.00 0.00 0.00 81 1011.7
20260906064004 71 283 0.0 0.0 0.00 0.00 0.00 80 1011.8
20260906062004 71 283 0.0 0.0 0.00 0.00 0.00 81 1011.9
20260906061004 71 283 0.0 0.0 0.00 0.00 0.00 81 1012.0
20260906060004 72 283 0.0 1.0 0.00 0.00 0.00 82 1012.0
20260906055004 72 278 0.0 1.0 0.00 0.00 0.00 82 1011.9
20260906052004 72 276 0.0 1.0 0.00 0.00 0.00 83 1012.2
20260906051003 72 282 0.0 1.0 0.00 0.00 0.00 84 1012.3
20260906050004 72 282 0.0 1.0 0.00 0.00 0.00 83 1012.3
20260906045004 72 283 0.0 1.0 0.00 0.00 0.00 83 1012.3
20260906043004 72 4 0.0 1.0 0.00 0.00 0.00 81 1012.2
20260906042004 72 333 1.0 1.0 0.00 0.00 0.00 81 1012.2
20260906041004 72 4 0.0 1.0 0.00 0.00 0.00 82 1012.1
20260906040004 72 273 0.0 3.0 0.00 0.00 0.00 83 1012.1
20260906035003 72 91 0.0 2.0 0.00 0.00 0.00 83 1012.0
20260906033004 73 43 0.0 2.0 0.00 0.00 0.00 83 1011.8
20260906032003 73 321 0.0 2.0 0.00 0.00 0.00 82 1011.7
20260906031003 73 6 0.0 1.0 0.00 0.00 0.00 82 1011.6
20260906030004 73 295 0.0 2.0 0.00 0.00 0.00 82 1011.6
20260906024003 74 332 0.0 2.0 0.00 0.00 0.00 82 1011.4
20260906023004 74 30 0.0 2.0 0.00 0.00 0.00 81 1011.5
20260906020004 75 246 1.0 4.0 0.00 0.00 0.00 78 1011.4
20260906015004 76 18 0.0 3.0 0.00 0.00 0.00 78 1011.5
20260906014004 76 263 0.0 2.0 0.00 0.00 0.00 76 1011.4
20260906013004 78 356 0.0 2.0 0.00 0.00 0.00 74 1011.4
20260906012005 78 276 0.0 7.0 0.00 0.00 0.00 70 1011.2
20260906005003 78 345 0.0 5.0 0.00 0.00 0.00 71 1011.2
20260906004003 79 357 0.0 4.0 0.00 0.00 0.00 69 1011.2
20260906003003 80 56 0.0 2.0 0.00 0.00 0.00 67 1011.0
20260906002004 80 293 0.0 4.0 0.00 0.00 0.00 65 1011.1
20260906001003 81 20 0.0 1.0 0.00 0.00 0.00 63 1011.0
20260906000004 82 81 0.0 5.0 0.00 0.00 0.00 59 1011.0
20260905235003 84 39 0.0 2.0 0.00 0.00 0.00 55 1011.0
20260905234003 85 13 1.0 4.0 0.00 0.00 0.00 52 1010.9
20260905232003 87 263 0.0 3.0 0.00 0.00 0.00 51 1010.9
20260905231003 87 49 0.0 2.0 0.00 0.00 0.00 49 1011.0
20260905230005 88 25 0.0 0.0 0.00 0.00 0.00 46 1011.1
20260905225005 88 256 0.0 1.0 0.00 0.00 0.00 43 1011.2
20260905224004 88 70 0.0 2.0 0.00 0.00 0.00 47 1011.3
20260905223005 89 15 0.0 3.0 0.00 0.00 0.00 48 1011.4
20260905222004 88 332 0.0 1.0 0.00 0.00 0.00 50 1011.5
20260905221004 88 13 0.0 4.0 0.00 0.00 0.00 48 1011.6
20260905215005 91 294 0.0 4.0 0.00 0.00 0.00 45 1011.8
20260905214005 91 266 0.0 1.0 0.00 0.00 0.00 46 1011.9
20260905213004 91 251 0.0 3.0 0.00 0.00 0.00 45 1012.1
20260905212004 91 11 0.0 0.0 0.00 0.00 0.00 44 1012.2
20260905211004 90 353 0.0 1.0 0.00 0.00 0.00 45 1012.2
20260905210006 90 321 0.0 2.0 0.00 0.00 0.00 47 1012.3
20260905204004 89 314 2.0 3.0 0.00 0.00 0.00 50 1012.6
20260905203004 89 12 0.0 3.0 0.00 0.00 0.00 49 1012.7
20260905202005 89 60 0.0 2.0 0.00 0.00 0.00 50 1012.7
20260905201005 89 26 0.0 1.0 0.00 0.00 0.00 51 1012.9
20260905200006 89 240 0.0 1.0 0.00 0.00 0.00 49 1013.0
20260905195004 89 172 0.0 0.0 0.00 0.00 0.00 50 1013.2
20260905194005 89 196 0.0 1.0 0.00 0.00 0.00 50 1013.2
20260905193004 89 253 0.0 0.0 0.00 0.00 0.00 51 1013.2
20260905192005 88 214 0.0 0.0 0.00 0.00 0.00 49 1013.3
20260905190005 87 169 0.0 1.0 0.00 0.00 0.00 50 1013.5
20260905185004 87 297 0.0 1.0 0.00 0.00 0.00 51 1013.8
20260905184004 86 23 0.0 1.0 0.00 0.00 0.00 43 1013.9
20260905182004 84 205 0.0 0.0 0.00 0.00 0.00 50 1014.0
20260905181006 84 41 0.0 0.0 0.00 0.00 0.00 51 1014.0
20260905180005 84 198 0.0 0.0 0.00 0.00 0.00 53 1014.0
20260905174004 82 185 0.0 0.0 0.00 0.00 0.00 56 1013.9
20260905173004 81 184 0.0 1.0 0.00 0.00 0.00 60 1013.8
20260905172005 80 111 0.0 0.0 0.00 0.00 0.00 61 1013.8
20260905171004 79 94 0.0 0.0 0.00 0.00 0.00 62 1013.8
20260905170005 78 44 0.0 0.0 0.00 0.00 0.00 65 1013.8
20260905165005 78 48 0.0 1.0 0.00 0.00 0.00 68 1013.8
20260905164004 77 48 0.0 2.0 0.00 0.00 0.00 69 1013.8
20260905162004 79 26 0.0 0.0 0.00 0.00 0.00 66 1013.8
20260905161005 78 146 0.0 0.0 0.00 0.00 0.00 70 1013.8
20260905160005 77 146 0.0 0.0 0.00 0.00 0.00 72 1013.7
20260905155004 77 144 0.0 0.0 0.00 0.00 0.00 72 1013.6
20260905153004 74 144 0.0 0.0 0.00 0.00 0.00 79 1013.5
20260905152004 73 144 0.0 0.0 0.00 0.00 0.00 82 1013.4
20260905150005 69 144 0.0 1.0 0.00 0.00 0.00 91 1013.4
20260905144004 66 142 0.0 0.0 0.00 0.00 0.00 95 1013.2
20260905143004 64 142 0.0 0.0 0.00 0.00 0.00 95 1013.2
20260905142004 63 142 0.0 0.0 0.00 0.00 0.00 94 1013.2
20260905141004 62 142 0.0 0.0 0.00 0.00 0.00 94 1013.0
20260905140005 61 142 0.0 0.0 0.00 0.00 0.00 94 1013.0
20260905135004 62 142 0.0 0.0 0.00 0.00 0.00 94 1012.7
20260905134004 61 142 0.0 0.0 0.00 0.00 0.00 94 1012.8
20260905133005 62 142 0.0 0.0 0.00 0.00 0.00 94 1012.5
20260905131004 62 142 0.0 0.0 0.00 0.00 0.00 94 1012.4
20260905130005 62 142 0.0 0.0 0.00 0.00 0.00 93 1012.3
20260905125004 62 142 0.0 0.0 0.00 0.00 0.00 94 1012.4
20260905123004 62 142 0.0 0.0 0.00 0.00 0.00 93 1012.3
20260905122004 62 142 0.0 0.0 0.00 0.00 0.00 93 1012.3
20260905121004 62 142 0.0 0.0 0.00 0.00 0.00 93 1012.4
20260905120004 62 142 0.0 0.0 0.00 0.00 0.00 93 1012.3
20260905115003 62 142 0.0 0.0 0.00 0.00 0.00 93 1012.3
20260905114003 62 142 0.0 0.0 0.00 0.00 0.00 92 1012.3
20260905113004 62 142 0.0 0.0 0.00 0.00 0.00 92 1012.3
20260905112003 63 142 0.0 0.0 0.00 0.00 0.00 92 1012.3
20260905110004 63 142 0.0 0.0 0.00 0.00 0.00 92 1012.6
20260905105003 63 142 0.0 0.0 0.00 0.00 0.00 92 1012.7
20260905104004 63 142 0.0 0.0 0.00 0.00 0.00 92 1012.5
20260905103004 63 142 0.0 0.0 0.00 0.00 0.00 91 1012.4
20260905102003 64 142 0.0 0.0 0.00 0.00 0.00 92 1012.5
20260905101003 64 142 0.0 0.0 0.00 0.00 0.00 92 1012.7
20260905100004 64 142 0.0 0.0 0.00 0.00 0.00 92 1012.6
20260905093004 64 142 0.0 0.0 0.00 0.00 0.00 92 1012.7
20260905092004 64 142 0.0 0.0 0.00 0.00 0.00 92 1012.7
20260905091004 64 142 0.0 0.0 0.00 0.00 0.00 91 1012.7
20260905090004 65 142 0.0 0.0 0.00 0.00 0.00 91 1012.7
20260905085004 65 142 0.0 0.0 0.00 0.00 0.00 91 1012.8
20260905083004 65 142 0.0 1.0 0.00 0.00 0.00 92 1012.9
20260905082005 64 250 0.0 0.0 0.00 0.00 0.00 91 1012.9
20260905081004 64 250 0.0 0.0 0.00 0.00 0.00 91 1013.1
20260905080005 64 250 0.0 0.0 0.00 0.00 0.00 90 1013.1
20260905075005 64 250 0.0 0.0 0.00 0.00 0.00 90 1013.0
20260905074004 64 250 0.0 0.0 0.00 0.00 0.00 90 1013.0
20260905073004 65 250 0.0 0.0 0.00 0.00 0.00 90 1013.0
20260905072004 65 250 0.0 0.0 0.00 0.00 0.00 90 1013.0
20260905071004 65 250 0.0 0.0 0.00 0.00 0.00 90 1012.9